Regional Weather Roundup
Issued by NWS Kansas City/Pleasant Hill, MO

Home | Current Version | Previous Version | Graphics & Text | Print | Product List | Glossary Off
Versions: 1 2 3 4 5 6 7 8 9 10 11 12 13 14 15 16 17 18 19 20 21 22 23 24 25 26 27

000
ASUS43 KEAX 210810
RWREAX

WEATHER ROUNDUP FOR EASTERN KANSAS AND NORTHWEST MISSOURI
NATIONAL WEATHER SERVICE KANSAS CITY/PLEASANT HILL MO
300 AM CDT THU SEP 21 2017

KSZ040-057-103>105-MOZ028-029-037-043-210900-
...KANSAS CITY METROPOLITAN AREA...

CITY           SKY/WX    TMP DP  RH WIND       PRES   REMARKS
K.C. INTL      PTCLDY    78  73  84 S13       29.88S
K.C. DOWNTOWN  PTCLDY    81  73  76 S12       29.87S
LEES SUMMIT    PTCLDY    78  72  81 S14       29.90S
OLATHE - IXD   CLEAR     77  72  84 S9        29.90S
OLATHE - OJC   PTCLDY    75  73  93 S7        29.90S
LAWRENCE       PTCLDY    79  73  82 S7        29.87S

$$

MOZ001>008-011>017-020>025-030>033-038>040-044>046-053-054-210900-
...NORTHERN AND CENTRAL MISSOURI...

CITY           SKY/WX    TMP DP  RH WIND       PRES   REMARKS
ST. JOSEPH     PTCLDY    71  71 100 CALM      29.86F
MOSBY          PTSUNNY   77  70  78 S5        29.88S
WARRENSBURG    CLEAR     73  70  88 S7        29.90S
WHITEMAN AFB   PTCLDY    77  77 100 S13       29.90F
CLINTON        CLEAR     75  72  88 S7        29.93S
SEDALIA        CLEAR     76  72  87 S7        29.94S
WARSAW         NOT AVBL
CHILLICOTHE      N/A     77  73  87 S6        29.88F
KIRKSVILLE     MOCLDY    74  71  91 S8        29.92R

$$

MOZ041-047>049-056>058-063>065-088>090-097-210900-
...EASTERN AND SOUTHERN MISSOURI...

CITY           SKY/WX    TMP DP  RH WIND       PRES   REMARKS
ST. LOUIS INTL CLEAR     79  71  76 S6        29.97R
SPIRIT OF STL  CLEAR     73  71  93 CALM      29.96R
COLUMBIA       CLEAR     76  71  85 S10       29.95S
JEFFERSON CITY CLEAR     76  70  82 E3        29.94S
ROLLA          CLEAR     74  70  87 S9        29.99S
OSAGE BEACH    CLEAR     73  70  90 SE6       29.97S
SPRINGFIELD    CLEAR     73  70  90 SE7       29.96F
BRANSON          N/A     70  68  94 SE6       29.99S
JOPLIN         CLEAR     78  72  81 S9        29.92F
WEST PLAINS    CLEAR     74  70  87 S3        30.02R

$$

IAZ060-094-KSZ022-034>040-054-083-096-NEZ052-066-093-210900-
...KANSAS...SOUTHEAST NEBRASKA AND IOWA...

CITY           SKY/WX    TMP DP  RH WIND       PRES   REMARKS
TOPEKA         CLEAR     75  73  93 E3        29.86S
MANHATTAN      CLEAR     72  68  87 CALM      29.83F
EMPORIA        PTCLDY    77  71  82 S13       29.86S
CHANUTE        CLEAR     76  72  87 SE5       29.89F
WICHITA        PTCLDY    76  72  87 SE9       29.84R
OMAHA          PTCLDY    62  54  74 NW5       29.88F
LINCOLN        MOCLDY    61  54  77 N6        29.88F
FALLS CITY     PTCLDY    69  64  84 E3        29.85F
LAMONI         MOCLDY    71  66  84 E3        29.89F
DES MOINES     PTCLDY    69  60  73 NE5       29.89F

$$





USA.gov is the U.S. government's official web portal to all federal, state and local government web resources and services.